{"data":{"norad_id":60268,"intl_designator":"2024-131P","name":"STARLINK-32167","alt_names":[],"object_type":"PAYLOAD","status":"ACTIVE","operator":null,"country":"US","launch_date":"2024-07-27","launch_site_code":"AFETR","launch_vehicle":null,"mission":null,"orbit_class":"UNKNOWN","rcs_meters":null,"size_class":null,"mass_kg":null,"dimensions":null,"purposes":["comms"],"wikipedia_slug":null,"has_3d_model":false,"image_url":null,"decayed_at":null,"tle_current":{"epoch":"2026-09-21T07:02:48.164064Z","epoch_age_seconds":113754,"freshness":"FRESH","line1":"1 60268U 24131P   26264.29361301 -.00000400  00000+0 -70200-6 0  9998","line2":"2 60268  53.1578 221.9566 0001448  85.5660 274.5508 15.34387613121681","mean_motion":15.34387613,"eccentricity":0.0001448,"inclination_deg":53.1578,"raan_deg":221.9566,"arg_perigee_deg":85.566,"mean_anomaly_deg":274.5508,"bstar":-7.02e-7,"rev_number":12168,"period_min":93.848515707484,"perigee_km":461.74949823134,"apogee_km":463.73061622712,"semimajor_km":6840.8770572292,"source":"CELESTRAK","updated_at":"2026-09-22T09:00:49.188787Z"}}}